Camarillo, CA

10:40 AM PDT on October 18, 2017 (GMT -0700)
Camarillo

Weather History for KCMA - April, 2013

Change the Weather History Date:

Monday, April 15, 2013

  Actual Average Record
Temperature  
Mean Temperature 59 °F 58 °F  
Max Temperature 66 °F 69 °F 97 °F (1966)
Min Temperature 52 °F 48 °F 40 °F (1970)
Degree Days  
Heating Degree Days 6 7  
Month to date heating degree days 50 110  
Since 1 July heating degree days 1392 1723  
Cooling Degree Days 0 0  
Month to date cooling degree days 0 0  
Year to date cooling degree days 24 13  
Growing Degree Days 9 (Base 50)    
Moisture  
Dew Point 48 °F    
Average Humidity 68    
Maximum Humidity 80    
Minimum Humidity 55    
Precipitation  
Precipitation 0.00 in 0.02 in 0.52 in (1995)
Month to date precipitation 0.00 0.30  
Year to date precipitation 2.07 10.13  
Since 1 July precipitation 4.78  
Sea Level Pressure  
Sea Level Pressure 29.88 in    
Wind  
Wind Speed 8 mph (WSW)    
Max Wind Speed 16 mph    
Max Gust Speed 20 mph    
Visibility 10 miles    
Events      
T = Trace of Precipitation, MM = Missing Value Source: NWS Daily Summary

Daily Weather History Graph

Daily Weather History Graph

Search for Another Location

Airport or City:

Trip Planner

Search our weather history database for the weather conditions in past years. The results will help you decide how hot, cold, wet, or windy it might be!

Date:

Astronomy

Apr. 15, 2013 Rise Set
Actual Time 6:24 AM PDT 7:28 PM PDT
Civil Twilight 5:59 AM PDT 7:54 PM PDT
Nautical Twilight 5:28 AM PDT 8:24 PM PDT
Astronomical Twilight 4:56 AM PDT 8:56 PM PDT
Moon 10:02 AM PDT (4/15) No Moon Set
Length of Visible Light 13h 55m
Length of Day
13h 03m
Waxing Crescent, 25% of the Moon is Illuminated
Apr 15
Waxing Crescent
Apr 18
First Quarter
Apr 25
Full
May 2
Last Quarter
May 9
New

Hourly Weather History & Observations

Time (PDT) Temp. Dew Point Humidity Pressure Visibility Wind Dir Wind Speed Gust Speed Precip Events Conditions
12:55 AM 60.1 °F 50.0 °F 69% 29.89 in 10.0 mi SW 3.5 mph - N/A   Overcast
1:03 AM 59.0 °F 50.0 °F 72% 29.86 in 10.0 mi Calm Calm - N/A   Overcast
1:55 AM 59.0 °F 50.0 °F 72% 29.88 in 10.0 mi Calm Calm - N/A   Overcast
2:55 AM 59.0 °F 50.0 °F 72% 29.87 in 10.0 mi Calm Calm - N/A   Overcast
3:55 AM 59.0 °F 50.0 °F 72% 29.87 in 9.0 mi WSW 3.5 mph - N/A   Overcast
4:24 AM 59.0 °F 50.0 °F 72% 29.84 in 9.0 mi Calm Calm - N/A   Overcast
4:55 AM 59.0 °F 51.1 °F 75% 29.87 in 9.0 mi WSW 5.8 mph - N/A   Overcast
5:19 AM 59.0 °F 51.8 °F 77% 29.84 in 8.0 mi West 5.8 mph - N/A   Overcast
5:55 AM 57.9 °F 51.1 °F 78% 29.86 in 8.0 mi West 6.9 mph - N/A   Overcast
6:07 AM 57.2 °F 50.0 °F 77% 29.84 in 8.0 mi West 5.8 mph - N/A   Overcast
6:55 AM 57.0 °F 48.9 °F 74% 29.88 in 7.0 mi West 4.6 mph - N/A   Overcast
7:55 AM 57.0 °F 48.9 °F 74% 29.89 in 9.0 mi West 5.8 mph - N/A   Overcast
8:55 AM 59.0 °F 48.9 °F 69% 29.90 in 10.0 mi West 3.5 mph - N/A   Overcast
9:55 AM 61.0 °F 48.9 °F 64% 29.91 in 10.0 mi Variable 3.5 mph - N/A   Overcast
10:24 AM 64.4 °F 50.0 °F 59% 29.88 in 10.0 mi SSW 5.8 mph - N/A   Mostly Cloudy
10:55 AM 64.0 °F 50.0 °F 60% 29.92 in 10.0 mi WSW 9.2 mph - N/A   Mostly Cloudy
11:55 AM 63.0 °F 48.9 °F 60% 29.93 in 10.0 mi SW 8.1 mph - N/A   Mostly Cloudy
12:55 PM 64.9 °F 48.9 °F 56% 29.92 in 10.0 mi SSW 12.7 mph 18.4 mph N/A   Mostly Cloudy
1:37 PM 64.4 °F 48.2 °F 56% 29.89 in 10.0 mi SSW 10.4 mph 17.3 mph N/A   Overcast
1:55 PM 64.9 °F 48.0 °F 54% 29.91 in 10.0 mi SSW 12.7 mph 18.4 mph N/A   Scattered Clouds
2:15 PM 64.4 °F 48.2 °F 56% 29.88 in 10.0 mi WSW 11.5 mph 18.4 mph N/A   Mostly Cloudy
2:55 PM 64.9 °F 48.0 °F 54% 29.89 in 10.0 mi West 9.2 mph - N/A   Mostly Cloudy
3:55 PM 64.9 °F 48.0 °F 54% 29.87 in 10.0 mi SSW 11.5 mph - N/A   Overcast
4:32 PM 64.4 °F 48.2 °F 56% 29.85 in 10.0 mi WSW 12.7 mph - N/A   Mostly Cloudy
4:55 PM 63.0 °F 46.9 °F 56% 29.87 in 10.0 mi West 13.8 mph - N/A   Mostly Cloudy
5:55 PM 62.1 °F 46.9 °F 58% 29.86 in 10.0 mi West 10.4 mph - N/A   Mostly Cloudy
6:55 PM 60.1 °F 45.0 °F 57% 29.87 in 10.0 mi West 13.8 mph - N/A   Scattered Clouds
7:55 PM 57.0 °F 43.0 °F 59% 29.88 in 10.0 mi West 13.8 mph - N/A   Partly Cloudy
8:55 PM 55.9 °F 43.0 °F 62% 29.89 in 10.0 mi WSW 6.9 mph - N/A   Clear
9:55 PM 55.9 °F 43.0 °F 62% 29.90 in 10.0 mi Calm Calm - N/A   Clear
10:55 PM 54.0 °F 43.0 °F 66% 29.90 in 10.0 mi West 8.1 mph - N/A   Clear
11:55 PM 53.1 °F 42.1 °F 66% 29.91 in 10.0 mi SE 4.6 mph - N/A   Clear